Location: La Sarre
(48.8000°N, 79.2000°W)
Time: 07:38:41
(UTC-04:00)

ISS - Visible Passes

Search period start: 27 September 2022 00:00
Search period end: 07 October 2022 00:00
Orbit: 414 x 417 km, 51.6° (Epoch: 27 September)

Date Brightness Start Highest point End Pass type
(mag) Time Alt. Az. Time Alt. Az. Time Alt. Az.
27 Sep -3.8 20:45:06 10° WNW 20:48:28 79° NNE 20:49:01 58° E visible
28 Sep -3.6 19:56:23 10° WNW 19:59:43 63° NNE 20:02:11 17° E visible
28 Sep -1.7 21:33:13 10° WNW 21:35:04 26° W 21:35:04 26° W visible
29 Sep -3.5 20:44:25 10° WNW 20:47:44 58° SSW 20:48:15 50° SSE visible
30 Sep -3.8 19:55:39 10° WNW 19:59:02 83° SSW 20:01:28 17° ESE visible
30 Sep -1.2 21:32:56 10° W 21:34:21 16° WSW 21:34:21 16° WSW visible
01 Oct -2.2 20:43:51 10° W 20:46:47 28° SW 20:47:38 25° S visible
02 Oct -2.8 19:54:55 10° WNW 19:58:07 42° SSW 20:00:58 12° SE visible
03 Oct -1.0 20:43:54 10° WSW 20:45:34 13° SW 20:47:13 10° SSW visible
04 Oct -1.4 19:54:24 10° W 19:56:57 20° SW 19:59:30 10° S visible
